TimeEST,TemperatureF,Dew PointF,Humidity,Sea Level PressureIn,VisibilityMPH,Wind Direction,Wind SpeedMPH,Gust SpeedMPH,PrecipitationIn,Events,Conditions,WindDirDegrees,DateUTC
12:53 AM,66.0,53.1,63,29.99,10.0,WSW,8.1,-,N/A,,Clear,250,2012-11-04 04:53:00
1:53 AM,61.0,53.1,75,29.99,10.0,WSW,4.6,-,N/A,,Partly Cloudy,240,2012-11-04 05:53:00
1:53 AM,62.1,53.1,72,30.00,10.0,West,5.8,-,N/A,,Scattered Clouds,260,2012-11-04 06:53:00
2:53 AM,57.0,52.0,83,29.98,10.0,SSW,6.9,-,N/A,,Clear,200,2012-11-04 07:53:00
3:53 AM,57.9,53.1,84,29.97,10.0,WSW,3.5,-,N/A,,Clear,250,2012-11-04 08:53:00
4:53 AM,55.0,52.0,89,29.98,10.0,Calm,Calm,-,N/A,,Clear,0,2012-11-04 09:53:00
5:53 AM,54.0,51.1,90,29.99,10.0,NW,5.8,-,N/A,,Clear,310,2012-11-04 10:53:00
6:53 AM,53.1,51.1,93,30.01,9.0,SW,3.5,-,N/A,,Clear,220,2012-11-04 11:53:00
7:53 AM,55.0,53.1,93,30.02,7.0,WSW,3.5,-,N/A,,Clear,250,2012-11-04 12:53:00
8:53 AM,62.1,54.0,75,30.02,10.0,WSW,4.6,-,N/A,,Clear,240,2012-11-04 13:53:00
9:53 AM,64.9,54.0,68,30.01,10.0,West,9.2,-,N/A,,Clear,270,2012-11-04 14:53:00
10:53 AM,69.1,55.0,61,30.00,10.0,WNW,11.5,-,N/A,,Partly Cloudy,290,2012-11-04 15:53:00
11:53 AM,70.0,54.0,57,29.99,10.0,West,13.8,21.9,N/A,,Partly Cloudy,280,2012-11-04 16:53:00
12:53 PM,64.0,55.9,75,29.97,7.0,NW,9.2,-,0.00,Rain,Light Rain,320,2012-11-04 17:53:00
1:53 PM,63.0,57.0,81,29.98,10.0,West,9.2,-,0.00,Rain,Light Rain,270,2012-11-04 18:53:00
2:40 PM,64.4,55.4,73,29.99,9.0,WNW,11.5,18.4,0.00,,Mostly Cloudy,290,2012-11-04 19:40:00
2:53 PM,66.0,55.0,68,29.97,8.0,NW,13.8,-,0.00,,Mostly Cloudy,310,2012-11-04 19:53:00
3:53 PM,64.9,52.0,63,29.96,9.0,West,9.2,-,N/A,,Mostly Cloudy,280,2012-11-04 20:53:00
4:00 PM,64.4,51.8,64,29.98,9.0,West,10.4,16.1,N/A,,Mostly Cloudy,280,2012-11-04 21:00:00
4:53 PM,64.0,50.0,60,29.97,10.0,WNW,10.4,-,N/A,,Clear,290,2012-11-04 21:53:00
5:53 PM,61.0,46.9,60,29.99,10.0,West,6.9,-,N/A,,Clear,270,2012-11-04 22:53:00
6:53 PM,59.0,46.0,62,30.01,10.0,NW,6.9,-,N/A,,Clear,310,2012-11-04 23:53:00
7:53 PM,57.0,44.1,62,30.01,10.0,NW,9.2,-,N/A,,Clear,310,2012-11-05 00:53:00
8:53 PM,55.0,42.1,62,30.01,10.0,NW,9.2,17.3,N/A,,Clear,320,2012-11-05 01:53:00
9:53 PM,52.0,39.9,63,30.02,10.0,NW,6.9,-,N/A,,Clear,310,2012-11-05 02:53:00
10:53 PM,50.0,39.9,68,30.01,10.0,WNW,6.9,-,N/A,,Clear,300,2012-11-05 03:53:00